Weather History for Paducah, KY

Change the Weather History Date:

Wednesday, March 28, 2012

  Actual Average Record
Temperature  
Mean Temperature 70 °F 52 °F  
Max Temperature 82 °F 63 °F 82 °F (1945)
Min Temperature 58 °F 41 °F 20 °F (1947)
Degree Days  
Heating Degree Days 0 13  
Month to date heating degree days 188 485  
Since 1 July heating degree days 2991 3781  
Cooling Degree Days 5 0  
Month to date cooling degree days 49 0  
Year to date cooling degree days 49 0  
Growing Degree Days 20 (Base 50)    
Moisture  
Dew Point 54 °F    
Average Humidity 61    
Maximum Humidity 84    
Minimum Humidity 37    
Precipitation  
Precipitation 0.00 in 0.14 in 3.04 in (1975)
Month to date precipitation 4.00 3.49  
Year to date precipitation 9.74 11.08  
Snow  
Snow 0.00 in 0.00 in T in (1970)
Month to date snowfall T 0.6  
Since 1 July snowfall 0.7 9.1  
Snow Depth 0.00 in    
Sea Level Pressure  
Sea Level Pressure 29.98 in    
Wind  
Wind Speed 8 mph (SW)    
Max Wind Speed 20 mph    
Max Gust Speed 26 mph    
Visibility 10 miles    
Events      
T = Trace of Precipitation, MM = Missing Value Source: NWS Daily Summary

Daily Weather History Graph

Daily Weather History Graph

Search for Another Location

Airport:

Trip Planner

Search our weather history database for the weather conditions in past years. The results will help you decide how hot, cold, wet, or windy it might be!

Date:

Astronomy

Mar. 28, 2012 Rise Set
Actual Time 6:45 AM CDT 7:14 PM CDT
Civil Twilight 6:19 AM CDT 7:40 PM CDT
Nautical Twilight 5:49 AM CDT 8:11 PM CDT
Astronomical Twilight 5:18 AM CDT 8:42 PM CDT
Moon 10:10 AM CDT (3/28) 12:09 AM CDT (3/28)
Length of Visible Light 13h 20m
Length of Day
12h 28m
Waxing Crescent, 30% of the Moon is Illuminated
Mar 28
Waxing Crescent
Mar 30
First Quarter
Apr 6
Full
Apr 13
Last Quarter
Apr 21
New

Hourly Weather History & Observations

Time (CDT) Temp. Heat Index Dew Point Humidity Pressure Visibility Wind Dir Wind Speed Gust Speed Precip Events Conditions
12:53 AM 66.0 °F - 54.0 °F 65% 30.01 in 10.0 mi SSW 3.5 mph - N/A   Clear
1:53 AM 64.9 °F - 53.1 °F 65% 30.01 in 10.0 mi SSW 5.8 mph - N/A   Clear
2:53 AM 64.9 °F - 53.1 °F 65% 29.99 in 10.0 mi SSW 6.9 mph - N/A   Clear
3:53 AM 64.0 °F - 53.1 °F 67% 29.99 in 10.0 mi SSW 6.9 mph - N/A   Clear
4:53 AM 62.1 °F - 53.1 °F 72% 30.00 in 10.0 mi SW 5.8 mph - N/A   Scattered Clouds
5:53 AM 62.1 °F - 54.0 °F 75% 30.01 in 10.0 mi SW 5.8 mph - N/A   Clear
6:53 AM 62.1 °F - 54.0 °F 75% 30.01 in 10.0 mi SSW 5.8 mph - N/A   Clear
7:53 AM 64.0 °F - 55.0 °F 73% 30.03 in 10.0 mi SW 5.8 mph - N/A   Clear
8:53 AM 69.1 °F - 57.0 °F 65% 30.03 in 10.0 mi SW 9.2 mph - N/A   Clear
9:53 AM 73.0 °F - 60.1 °F 64% 30.03 in 9.0 mi WSW 12.7 mph - N/A   Clear
10:53 AM 77.0 °F - 59.0 °F 54% 30.04 in 8.0 mi West 12.7 mph - N/A   Clear
11:53 AM 80.1 °F 80.6 °F 57.9 °F 47% 30.02 in 10.0 mi West 15.0 mph 21.9 mph N/A   Clear
12:53 PM 80.1 °F 80.2 °F 55.9 °F 43% 30.00 in 10.0 mi West 15.0 mph 21.9 mph N/A   Mostly Cloudy
1:53 PM 81.0 °F 81.0 °F 57.0 °F 44% 29.99 in 10.0 mi West 12.7 mph - N/A   Partly Cloudy
2:53 PM 81.0 °F 81.1 °F 57.9 °F 45% 29.96 in 10.0 mi WSW 13.8 mph - N/A   Partly Cloudy
3:53 PM 81.0 °F 80.7 °F 55.0 °F 41% 29.95 in 10.0 mi WSW 10.4 mph - N/A   Clear
4:53 PM 80.1 °F 79.9 °F 53.1 °F 39% 29.93 in 10.0 mi WSW 10.4 mph - N/A   Clear
5:53 PM 79.0 °F - 50.0 °F 36% 29.93 in 10.0 mi SW 9.2 mph - N/A   Clear
6:53 PM 75.0 °F - 51.1 °F 43% 29.94 in 10.0 mi SW 4.6 mph - N/A   Clear
7:53 PM 72.0 °F - 51.1 °F 48% 29.94 in 10.0 mi South 3.5 mph - N/A   Clear
8:53 PM 72.0 °F - 51.1 °F 48% 29.94 in 10.0 mi SSW 5.8 mph - N/A   Clear
9:53 PM 66.9 °F - 53.1 °F 61% 29.96 in 10.0 mi NNE 3.5 mph - N/A   Clear
10:53 PM 59.0 °F - 54.0 °F 83% 29.96 in 10.0 mi Calm Calm - N/A   Clear
11:53 PM 60.1 °F - 55.0 °F 83% 29.96 in 10.0 mi Calm Calm - N/A   Clear